Wind_Speed
17 16 14 13 12 11 9 8 8 7 7 6 5 4 4 5 5 6 7 8 8 9 9 9 10 10 10 10 11 13 15 16 17 19 20 22 22 22 21 19 19 19
19 18 16 15 14 13 11 11 10 10 9 9 7 6 6 6 6 6 7 8 8 9 9 9 9 9 9 9 10 12 14 15 16 18 19 21 22 22 21 20 19 18
21 20 18 17 16 15 14 14 14 13 12 11 10 9 9 9 8 8 8 8 9 9 9 9 9 9 9 9 9 11 12 14 15 17 18 19 21 22 21 21 19 18
23 22 21 19 18 17 17 17 16 15 14 13 13 13 12 11 10 10 10 9 9 9 9 10 10 10 10 9 9 10 11 13 14 15 17 18 19 20 21 21 20 18
25 24 22 21 20 20 19 19 18 17 16 16 16 16 15 14 13 12 12 11 11 10 10 10 10 10 10 10 10 10 11 12 13 14 15 17 18 19 20 20 19 19
26 25 24 23 22 22 21 20 20 20 19 18 19 19 17 17 16 14 14 13 12 12 11 11 11 11 11 11 11 10 10 11 12 13 14 15 16 17 18 19 19 18
25 25 25 24 24 23 23 22 22 22 21 21 21 21 20 19 18 16 16 15 14 13 13 13 12 12 11 12 12 11 11 11 12 13 14 14 15 16 16 17 17 17
22 22 22 23 24 24 24 23 23 23 23 23 22 22 21 20 20 19 18 16 15 15 15 14 14 14 13 13 13 13 12 12 12 12 14 14 15 15 15 16 16 16
22 22 22 22 23 23 24 24 24 24 24 23 23 23 23 22 21 20 19 18 17 16 16 16 16 15 14 14 14 14 14 14 13 13 14 14 15 15 15 15 15 16
22 23 23 23 23 23 23 23 24 24 24 23 23 23 23 23 22 22 21 20 19 18 18 18 18 16 15 15 16 16 15 16 15 14 14 15 16 16 16 16 16 16
23 23 24 24 24 23 23 23 24 24 24 23 23 23 24 23 23 23 22 21 20 20 20 20 19 18 17 17 17 17 17 17 17 16 16 16 17 17 17 16 17 17
23 24 24 24 23 22 22 23 24 24 24 24 24 24 24 24 24 23 23 22 22 21 21 22 21 20 19 18 18 18 18 19 19 18 17 18 18 19 19 18 18 18
22 23 24 24 23 22 21 22 24 24 25 25 25 26 26 25 25 25 24 23 23 23 23 23 23 22 21 20 20 20 20 20 20 20 19 19 20 20 20 20 19 19
23 22 23 23 24 23 23 23 24 25 25 25 26 26 27 27 27 26 25 25 25 25 25 25 25 24 23 21 21 21 22 22 22 21 21 21 21 21 22 22 21 21
24 23 23 23 23 24 24 24 24 25 26 26 26 27 27 28 28 28 28 27 27 27 27 27 27 26 25 23 23 23 23 23 23 23 23 23 23 23 23 23 23 23
26 25 25 24 23 23 24 24 25 26 27 27 27 27 28 28 29 30 30 29 29 29 29 29 29 28 27 25 25 25 25 25 24 24 24 24 24 24 25 25 25 25
28 27 27 25 24 24 24 25 25 26 27 27 27 28 29 29 30 31 31 31 31 31 31 31 31 30 28 27 27 27 27 27 26 26 26 26 26 26 26 27 27 27
30 29 28 28 27 26 26 26 26 26 26 27 27 28 29 30 30 31 32 33 33 33 34 34 33 32 31 29 29 30 30 29 29 28 28 28 28 28 28 29 29 29
31 30 30 31 30 29 28 27 27 27 27 27 27 27 28 30 31 31 32 33 34 35 36 36 36 35 33 32 31 32 32 32 32 31 31 31 30 30 30 31 31 31
34 32 33 33 32 31 29 28 28 28 28 28 28 27 28 30 31 31 32 34 35 36 36 37 37 37 36 34 34 34 35 35 34 34 34 33 33 32 33 33 33 33
36 35 35 35 34 33 32 31 30 30 30 29 29 28 28 30 31 32 32 34 35 36 37 37 38 38 37 35 35 36 37 38 38 37 36 35 35 35 35 35 35 36
38 38 37 37 36 35 34 33 32 32 31 30 30 29 29 29 31 32 32 33 34 36 37 38 39 39 39 37 36 37 39 40 41 40 39 37 37 36 37 37 37 38
40 40 40 39 38 37 36 35 34 33 33 31 30 30 30 30 30 31 32 33 34 36 38 39 39 40 41 39 37 38 40 41 42 41 40 39 38 38 38 38 39 39
42 42 42 42 40 39 38 37 35 35 34 33 31 31 31 31 30 31 32 33 34 35 37 39 39 40 42 41 39 39 41 43 43 43 42 40 39 39 39 39 40 40
44 44 44 44 42 41 40 39 37 36 35 34 33 32 32 32 32 31 32 33 34 35 37 39 40 41 42 42 41 41 42 44 44 44 43 42 40 39 40 40 40 40
46 46 46 46 44 42 41 41 39 38 37 36 34 33 33 34 33 33 33 34 34 35 36 38 39 41 42 43 42 42 43 45 46 46 45 43 41 41 40 40 40 39
Wind_Direction
213 219 222 222 223 224 224 227 230 230 234 242 252 266 281 293 303 311 316 318 319 321 325 329 332 336 345 355 2 6 8 8 10 13 14 16 19 21 22 21 17 13
215 220 224 225 226 226 227 229 233 233 237 245 250 257 266 275 286 296 303 308 312 316 318 321 324 328 336 347 354 358 3 4 6 9 12 14 16 19 21 20 17 13
214 219 223 226 229 230 230 231 232 233 236 243 248 253 260 267 276 283 289 296 302 308 312 314 316 319 325 334 344 350 355 359 2 5 8 12 14 16 19 19 17 13
213 217 220 223 228 232 233 235 236 236 238 242 246 251 256 263 269 274 280 286 292 299 305 308 310 312 314 319 330 339 345 351 356 359 3 7 11 13 16 18 17 13
214 217 219 221 224 228 232 236 239 241 242 243 247 251 255 259 264 269 274 279 284 291 297 302 305 306 306 309 315 326 334 341 347 352 356 1 6 9 11 14 16 13
215 216 218 220 223 226 230 234 238 242 243 244 248 252 254 258 262 266 270 275 281 286 290 295 298 300 300 300 303 310 320 329 336 341 347 352 358 3 6 9 11 12
223 221 220 220 222 225 229 232 236 241 243 244 248 252 255 258 261 264 267 271 277 282 285 289 292 293 294 293 294 298 305 314 322 329 335 341 347 354 359 3 5 6
234 234 231 228 227 227 228 230 233 239 242 244 248 252 254 257 259 261 264 267 271 276 280 283 285 288 290 289 288 289 294 301 308 317 323 328 334 341 348 354 357 359
238 240 241 239 238 236 234 233 233 237 241 244 248 252 255 257 259 261 262 264 267 271 274 277 279 282 285 285 284 285 287 291 296 303 310 315 321 328 335 341 346 350
236 238 240 241 242 243 242 241 240 240 242 243 246 250 255 258 260 261 262 263 265 267 269 271 274 277 280 280 281 281 282 284 287 293 298 304 309 314 321 327 333 338
237 239 240 240 241 243 244 245 246 246 246 246 245 247 251 255 258 260 262 263 263 264 265 267 269 271 274 275 277 278 279 279 281 285 289 294 298 303 308 314 319 325
238 242 245 247 247 247 246 247 247 249 250 249 248 248 249 252 255 257 259 261 262 263 264 265 266 268 269 271 273 275 275 276 277 279 282 286 290 294 299 303 308 313
237 242 248 254 257 258 255 252 250 250 251 250 250 250 250 250 253 255 257 259 261 261 262 263 265 266 267 269 271 272 272 273 274 276 278 281 284 288 292 296 300 304
238 240 244 250 256 261 261 259 256 254 253 251 251 250 251 251 251 253 254 255 258 260 261 262 264 264 265 267 269 270 271 272 274 275 276 277 280 283 287 290 294 297
240 240 241 243 247 254 258 260 260 260 259 257 254 252 252 252 251 252 253 253 255 258 259 261 262 263 265 266 267 269 270 272 273 274 275 276 277 280 283 285 288 292
240 241 242 242 243 246 251 255 258 260 262 261 259 257 255 254 252 252 252 252 253 255 258 260 261 262 264 265 266 267 269 270 272 273 273 274 276 277 279 282 284 287
240 242 244 244 244 244 246 249 251 254 258 260 261 261 259 257 255 254 254 254 254 255 256 258 259 261 262 264 265 266 268 269 270 270 271 272 274 275 276 279 281 284
241 243 245 246 246 246 246 248 250 252 254 257 259 260 261 261 259 257 256 256 256 256 256 258 259 261 261 263 265 266 267 268 269 269 270 270 271 273 275 277 279 281
242 243 246 248 248 248 249 250 252 253 256 258 259 259 260 262 262 260 258 257 257 257 258 259 260 261 261 261 263 265 267 268 269 269 269 270 271 272 274 276 278 279
242 243 246 248 250 251 251 252 254 256 258 260 261 260 259 260 262 262 261 259 259 258 259 260 261 262 262 261 262 263 265 266 267 268 268 269 271 273 274 276 277 279
242 244 246 248 250 251 253 254 255 258 260 262 264 265 264 264 265 265 264 262 261 260 260 260 261 263 264 263 263 264 264 265 265 266 267 269 270 272 274 276 277 279
243 244 246 249 250 252 253 255 257 259 262 265 267 269 269 269 268 269 269 267 265 263 262 261 261 262 263 263 264 264 264 264 265 265 266 267 269 271 273 275 276 278
243 245 247 250 251 252 254 255 258 260 263 265 268 270 272 272 272 273 273 272 269 266 264 264 263 262 263 262 262 264 265 266 267 267 267 268 268 270 271 273 275 276
243 245 247 250 252 253 255 256 258 261 263 266 269 271 272 274 275 276 275 275 273 270 268 267 265 264 264 263 261 262 264 266 268 269 270 271 271 272 273 274 274 275
244 245 247 249 251 254 256 257 259 261 263 266 269 271 274 277 279 279 279 278 277 274 272 271 269 267 266 266 264 263 264 267 269 270 272 273 274 275 276 276 277 277
245 246 248 250 251 253 256 259 260 262 264 267 270 273 276 278 281 282 282 281 280 277 274 273 272 271 270 269 269 267 266 268 270 272 273 275 276 277 278 279 279 280
Height
11027 11028 11029 11030 11030 11031 11032 11032 11033 11033 11033 11033 11034 11034 11034 11034 11034 11034 11034 11033 11033 11033 11032 11032 11032 11031 11031 11031 11031 11031 11030 11030 11029 11028 11027 11026 11025 11024 11023 11022 11020 11018
11025 11026 11027 11028 11029 11030 11031 11032 11032 11032 11033 11033 11033 11034 11034 11034 11034 11034 11034 11034 11033 11033 11033 11033 11032 11032 11032 11032 11031 11031 11031 11030 11030 11029 11028 11027 11026 11025 11024 11022 11021 11019
11023 11024 11026 11027 11028 11029 11030 11030 11031 11031 11032 11032 11033 11033 11033 11033 11034 11034 11034 11034 11034 11033 11033 11033 11033 11033 11032 11032 11032 11032 11031 11031 11030 11030 11029 11028 11027 11026 11025 11023 11022 11020
11020 11022 11023 11025 11026 11027 11028 11028 11029 11030 11031 11031 11032 11032 11032 11033 11033 11033 11033 11033 11033 11033 11033 11033 11033 11033 11033 11032 11032 11032 11032 11031 11031 11030 11029 11028 11027 11026 11025 11024 11023 11021
11018 11019 11021 11022 11024 11025 11026 11027 11028 11029 11029 11030 11030 11031 11031 11032 11032 11032 11033 11033 11033 11033 11033 11033 11033 11033 11032 11032 11032 11032 11032 11031 11031 11030 11029 11029 11028 11027 11026 11025 11024 11022
11016 11017 11018 11020 11021 11022 11023 11024 11026 11026 11027 11028 11029 11029 11030 11030 11031 11031 11032 11032 11032 11032 11032 11032 11032 11032 11032 11032 11031 11031 11031 11031 11031 11030 11029 11029 11028 11027 11026 11025 11024 11023
11014 11015 11016 11017 11018 11019 11021 11022 11023 11024 11025 11026 11026 11027 11028 11029 11029 11030 11030 11031 11031 11031 11031 11031 11031 11031 11031 11031 11031 11031 11030 11030 11030 11030 11029 11028 11028 11027 11027 11026 11025 11024
11013 11014 11015 11016 11016 11017 11018 11019 11020 11021 11022 11023 11024 11025 11026 11027 11028 11028 11029 11029 11030 11030 11030 11030 11030 11030 11030 11030 11030 11030 11030 11029 11029 11029 11028 11028 11027 11027 11026 11026 11025 11024
11012 11013 11013 11014 11014 11015 11016 11017 11018 11018 11019 11021 11022 11023 11024 11025 11025 11026 11027 11027 11028 11028 11028 11028 11028 11028 11029 11029 11028 11028 11028 11028 11028 11028 11027 11027 11026 11026 11025 11025 11025 11024
11009 11010 11011 11012 11012 11013 11014 11015 11015 11016 11017 11018 11020 11021 11021 11022 11023 11024 11025 11025 11026 11026 11026 11026 11026 11027 11027 11027 11027 11027 11027 11027 11026 11026 11026 11025 11025 11024 11024 11024 11024 11023
11007 11007 11008 11009 11009 11010 11011 11013 11013 11014 11015 11016 11017 11018 11018 11019 11020 11021 11022 11023 11024 11024 11024 11024 11024 11024 11025 11025 11025 11025 11025 11025 11025 11024 11024 11024 11023 11023 11023 11022 11022 11022
11005 11005 11006 11006 11007 11009 11010 11010 11011 11011 11012 11013 11014 11015 11015 11016 11017 11018 11019 11020 11021 11021 11021 11021 11022 11022 11023 11023 11023 11023 11023 11023 11022 11023 11022 11022 11021 11021 11021 11021 11021 11020
11003 11003 11004 11005 11005 11007 11008 11009 11009 11009 11009 11010 11011 11012 11012 11013 11014 11015 11016 11017 11018 11018 11018 11019 11019 11020 11020 11021 11021 11021 11021 11020 11020 11020 11020 11020 11020 11019 11019 11019 11019 11019
11000 11002 11003 11003 11004 11004 11005 11006 11006 11006 11007 11007 11008 11009 11009 11010 11011 11012 11013 11014 11015 11015 11015 11016 11016 11017 11018 11018 11018 11018 11018 11018 11018 11018 11018 11018 11017 11017 11017 11016 11017 11017
10997 10999 11000 11001 11001 11002 11002 11003 11003 11003 11004 11005 11006 11006 11007 11008 11008 11009 11009 11010 11011 11012 11012 11013 11013 11014 11015 11015 11015 11015 11015 11016 11016 11016 11016 11015 11015 11015 11014 11014 11014 11014
10994 10995 10997 10998 10999 10999 10999 11000 11000 11000 11001 11001 11003 11003 11004 11005 11005 11006 11006 11007 11008 11008 11008 11009 11010 11010 11012 11012 11012 11012 11012 11013 11013 11013 11013 11013 11013 11013 11012 11012 11012 11012
10991 10992 10993 10994 10995 10996 10996 10997 10997 10997 10998 10998 10999 11000 11001 11002 11002 11003 11003 11004 11005 11005 11005 11005 11006 11007 11008 11009 11009 11009 11009 11009 11010 11010 11010 11010 11010 11010 11010 11009 11009 11009
10988 10989 10990 10991 10992 10993 10993 10994 10994 10994 10995 10995 10996 10997 10998 10998 10999 11000 11000 11001 11001 11001 11001 11001 11002 11003 11005 11006 11006 11005 11005 11006 11006 11007 11007 11007 11007 11007 11007 11007 11006 11006
10985 10986 10986 10987 10988 10989 10990 10991 10991 10991 10992 10992 10993 10994 10995 10995 10995 10996 10997 10997 10998 10998 10998 10998 10998 10999 11001 11002 11002 11002 11002 11002 11003 11003 11003 11004 11004 11004 11004 11004 11003 11003
10981 10983 10983 10983 10984 10986 10987 10988 10988 10988 10989 10989 10990 10990 10991 10991 10991 10992 10994 10994 10994 10994 10995 10995 10995 10995 10997 10998 10999 10998 10998 10998 10998 10999 10999 11000 11001 11001 11001 11000 11000 11000
10978 10979 10979 10979 10980 10982 10983 10984 10985 10985 10986 10986 10987 10987 10988 10988 10988 10989 10990 10990 10990 10991 10991 10991 10991 10991 10993 10995 10995 10995 10994 10994 10994 10994 10995 10997 10997 10997 10997 10997 10996 10996
10974 10974 10975 10976 10977 10978 10979 10980 10981 10981 10982 10983 10984 10984 10984 10985 10985 10985 10985 10986 10987 10987 10987 10988 10988 10988 10989 10991 10992 10991 10990 10989 10989 10990 10991 10993 10994 10994 10994 10993 10993 10992
10969 10970 10971 10971 10973 10974 10975 10976 10977 10978 10979 10980 10981 10981 10981 10981 10982 10982 10982 10983 10983 10984 10983 10983 10984 10983 10984 10986 10988 10987 10985 10984 10984 10985 10987 10989 10990 10990 10990 10990 10989 10989
10965 10966 10967 10967 10968 10970 10971 10973 10974 10974 10975 10976 10977 10977 10977 10978 10978 10979 10978 10979 10979 10979 10979 10979 10980 10980 10979 10981 10983 10983 10981 10980 10980 10981 10982 10984 10986 10986 10987 10986 10985 10985
10961 10962 10963 10963 10965 10966 10967 10969 10970 10971 10971 10973 10973 10974 10974 10974 10975 10975 10975 10975 10975 10976 10976 10975 10976 10976 10975 10976 10978 10979 10978 10977 10976 10977 10978 10980 10982 10983 10983 10983 10982 10981
10957 10958 10958 10959 10961 10963 10964 10964 10966 10967 10968 10969 10970 10971 10971 10970 10971 10971 10971 10971 10971 10972 10972 10972 10972 10971 10971 10972 10974 10975 10975 10974 10972 10972 10974 10976 10978 10979 10979 10979 10979 10978